Location: Austin
(30.3000°N, 97.7500°W)
Time: 03:01:19
(UTC-06:00)

Cosmos 2219 Rocket - Pass Details

Date: 20 November 2023
Orbit: 826 x 848 km, 71.0° (Epoch: 04 December)

Event Time Altitude Azimuth Distance (km) Brightness Sun altitude
Rises 17:54:29 0° 342° (NNW) 3,411 5.3 -5.3°
Reaches altitude 10° 17:56:57 10° 345° (NNW) 2,473 4.6 -5.8°
Maximum altitude 18:02:38 73° 70° (ENE) 885 2.2 -7.0°
Drops below altitude 10° 18:08:15 10° 155° (SSE) 2,452 4.6 -8.1°
Sets 18:10:41 0° 157° (SSE) 3,381 5.3 -8.6°
